Flag for Germany Weather past 2 weeks in Witzenhausen, Hesse, Germany

55 °F

Light rain. Partly sunny.

Feels Like: 53 °F
Forecast: 38 / 52 °F
Wind: 8 mph from Northwest

Location: Kassel / Calden

Current Time: Oct 9, 2015 at 4:03:12 PM

Latest Report: Oct 9, 2015 at 3:20 PM

Visibility: 5 mi

Pressure: 30.12 "Hg

Humidity: 100%

Dew point: 55 °F

Location of WitzenhausenLocation

Historic Weather in Witzenhausen — Graph


Witzenhausen temperature yesterday

Maximum temperature yesterday: 55 °F (at 8:50 AM)
Minimum temperature yesterday: 54 °F (at 6:50 AM)
Average temperature yesterday: 54 °F

Past Weeks' High & Low Weather Summary

High64 °F (Oct 2, 4:20 PM)100% (Sep 25, 5:50 AM)30.66 "Hg (Sep 25, 5:50 AM)
Low30 °F (Oct 2, 6:50 AM)37% (Oct 2, 4:20 PM)29.68 "Hg (Oct 6, 7:20 AM)
Average54 °F80%30.22 "Hg
* Reported Sep 24 2:20 PM — Oct 9 2:50 PM, Witzenhausen, Weather by CustomWeather, © 2015

Note: Actual official high and low records may vary slightly from our data, if they occured in-between our weather recording intervals... More about our weather records


Witzenhausen weather history for previous 24 hours

Time TempWeatherWind HumidityBarometerVisibility
2:50 PM
Fri, Oct 9
55 °FRain. Partly sunny.10 mph100%30.12 "Hg6 mi
2:20 PM57 °FBroken clouds.5 mph100%30.12 "HgN/A
1:50 PM57 °FMore clouds than sun.3 mph100%30.15 "HgN/A
1:20 PM55 °FMore clouds than sun.3 mph100%30.15 "HgN/A
12:50 PM54 °FLow clouds.5 mph100%30.15 "Hg5 mi
12:20 PM54 °FLight rain. Fog.6 mph100%30.15 "Hg2 mi
11:50 AM54 °FLow clouds.6 mph100%30.15 "Hg4 mi
11:20 AM54 °FLight rain. Fog.7 mph100%30.15 "Hg2 mi
10:50 AM52 °FLight rain. Fog.6 mph100%30.15 "Hg1 mi
10:20 AM52 °FLight rain. Fog.6 mph100%30.15 "Hg1 mi
9:50 AM52 °FLight rain. Fog.7 mph100%30.15 "Hg2 mi
9:20 AM52 °FLight rain. Fog.7 mph100%30.15 "Hg3 mi
8:50 AM52 °FLight rain. Fog.7 mph100%30.15 "Hg1 mi
8:20 AM52 °FLight rain. Fog.6 mph100%30.12 "Hg3 mi
7:50 AM52 °FLight rain. Fog.6 mph100%30.12 "Hg3 mi
7:20 AM52 °FLight rain. Low clouds.6 mph100%30.12 "Hg2 mi
6:50 AM52 °FLight rain. Low clouds.6 mph100%30.12 "Hg4 mi
6:20 AM52 °FLight rain. Low clouds.6 mph100%30.12 "Hg4 mi
9:50 PM
Thu, Oct 8
54 °FFog.12 mph100%30.15 "Hg2 mi
9:20 PM54 °FPartly cloudy.7 mph100%30.15 "Hg4 mi
8:50 PM54 °FMostly cloudy.3 mph100%30.15 "Hg4 mi
7:50 PM54 °FLight rain. Partly cloudy.3 mph100%30.15 "Hg3 mi
7:20 PM54 °FRain. Cloudy.3 mph100%30.12 "Hg1 mi
6:50 PM54 °FLight rain. Overcast.2 mph100%30.12 "Hg2 mi
6:20 PM54 °FFog.3 mph100%30.12 "Hg2 mi
5:50 PM54 °FPartly sunny.2 mph100%30.12 "Hg4 mi
5:20 PM54 °FFog.3 mph100%30.12 "Hg3 mi
4:50 PM55 °FFog.5 mph100%30.12 "Hg3 mi
4:20 PM54 °FOvercast.3 mph100%30.12 "Hg4 mi
Weather by CustomWeather, © 2015

See weather overviewHow to use our weather pages